Home   Weather   Benghazi   Past weeks

Flag for Libya Past Weather in Benghazi, Libya — Yesterday and Last 2 Weeks

Now
52 °F

Partly sunny.


Feels Like: 49 °F
Forecast: 62 / 68 °F
Wind: 7 mph from East

Location: Souda Airport

Current Time: Dec 8, 2016 at 4:36:01 pm

Latest Report: Dec 8, 2016 at 3:50 pm


Visibility: N/A

Pressure: 30.48 "Hg

Humidity: 72%

Dew Point: 43 °F

Location of BenghaziLocation

Past Weather in Benghazi — Graph

°F

Benghazi Temperature Yesterday

Maximum temperature yesterday: 61 °F (at 11:50 am)
Minimum temperature yesterday: 50 °F (at 12:20 am)
Average temperature yesterday: 56 °F

High & Low Weather Summary for the Past Weeks

 TemperatureHumidityPressure
High73 °F (Nov 28, 12:20 pm)100% (Nov 27, 12:50 am)30.57 "Hg (Nov 27, 12:50 am)
Low45 °F (Dec 2, 5:50 am)48% (Dec 2, 1:50 pm)29.71 "Hg (Nov 29, 2:50 pm)
Average57 °F81%30.10 "Hg
* Reported Nov 23 3:20 pm — Dec 8 3:20 pm, Benghazi, Weather by CustomWeather, © 2016

Note: Actual official high and low records may vary slightly from our data, if they occured in-between our weather recording intervals... More about our weather records

Advertising

Benghazi Weather History for the Previous 24 Hours

Scroll right to see more
 ConditionsComfort  
Time TempWeatherWind HumidityBarometerVisibility
3:20 pm
Thu, Dec 8
52 °FPartly sunny.9 mph67%30.51 "HgN/A
2:50 pm52 °FPartly sunny.12 mph67%30.51 "HgN/A
2:20 pm52 °FPartly sunny.12 mph67%30.51 "HgN/A
1:50 pm52 °FPartly sunny.14 mph67%30.51 "HgN/A
1:20 pm52 °FPartly sunny.14 mph67%30.51 "HgN/A
12:50 pm52 °FPartly sunny.14 mph67%30.51 "HgN/A
12:20 pm52 °FPartly sunny.16 mph67%30.54 "HgN/A
11:50 am52 °FPartly sunny.18 mph67%30.54 "HgN/A
11:20 am52 °FPartly sunny.14 mph67%30.57 "HgN/A
10:50 am52 °FPartly sunny.18 mph67%30.57 "HgN/A
10:20 am52 °FPartly sunny.18 mph67%30.57 "HgN/A
9:50 am52 °FPartly sunny.16 mph67%30.57 "HgN/A
9:20 am52 °FPartly sunny.18 mph72%30.54 "HgN/A
8:50 am52 °FPartly sunny.16 mph72%30.54 "HgN/A
8:20 am52 °FPartly sunny.14 mph72%30.54 "HgN/A
7:50 am52 °FPartly sunny.14 mph72%30.54 "HgN/A
7:20 am50 °FPartly sunny.16 mph88%30.51 "HgN/A
6:50 am50 °FPassing clouds.18 mph88%30.51 "HgN/A
6:20 am54 °FLight rain. Passing clouds.16 mph77%30.51 "Hg4 mi
5:50 am54 °FPassing clouds.18 mph77%30.51 "HgN/A
5:20 am54 °FPassing clouds.21 mph77%30.51 "HgN/A
4:50 am54 °FPassing clouds.17 mph77%30.51 "HgN/A
4:20 am54 °FPassing clouds.23 mph77%30.51 "HgN/A
3:20 am54 °FPassing clouds.23 mph77%30.48 "HgN/A
2:50 am54 °FPassing clouds.15 mph88%30.48 "HgN/A
2:20 am54 °FLight rain. Passing clouds.17 mph88%30.48 "Hg5 mi
1:50 am54 °FLight rain. Passing clouds.18 mph88%30.45 "Hg4 mi
1:20 am57 °FLight rain. Passing clouds.17 mph77%30.45 "Hg5 mi
12:50 am57 °FPassing clouds.17 mph72%30.42 "HgN/A
12:20 am57 °FPassing clouds.16 mph72%30.42 "HgN/A
11:50 pm
Wed, Dec 7
57 °FLight rain. Passing clouds.14 mph77%30.42 "Hg6 mi
11:20 pm57 °FLight rain. Passing clouds.16 mph77%30.42 "Hg5 mi
10:50 pm57 °FPassing clouds.17 mph77%30.42 "HgN/A
10:20 pm57 °FLight rain. Passing clouds.17 mph94%30.39 "Hg6 mi
9:50 pm57 °FLight rain. Passing clouds.16 mph94%30.39 "Hg4 mi
9:20 pm57 °FPassing clouds.14 mph88%30.36 "HgN/A
8:50 pm57 °FPassing clouds.14 mph88%30.36 "HgN/A
8:20 pm57 °FPassing clouds.9 mph82%30.33 "HgN/A
7:50 pm57 °FPassing clouds.9 mph82%30.33 "HgN/A
7:20 pm57 °FMostly cloudy.7 mph88%30.33 "HgN/A
6:50 pm57 °FLight rain. Mostly cloudy.7 mph88%30.33 "Hg4 mi
6:20 pm59 °FLight rain. Passing clouds.9 mph82%30.30 "Hg4 mi
5:50 pm59 °FLight rain. Passing clouds.9 mph82%30.30 "Hg6 mi
5:20 pm59 °FPartly cloudy.12 mph82%30.30 "HgN/A
4:50 pm59 °FBroken clouds.12 mph82%30.30 "HgN/A
4:20 pm61 °FBroken clouds.9 mph83%30.27 "HgN/A
Weather by CustomWeather, © 2016

See weather overviewHow to use our weather pages